Regional Weather Roundup
Issued by NWS

Home | Current Version | Previous Version | Graphics & Text | Print | Product List | Glossary On
Versions: 1 2 3 4 5 6 7 8 9 10 11 12 13 14 15 16 17 18 19 20 21 22 23 24 25 26 27 28 29 30 31 32 33 34 35 36 37 38 39 40 41 42 43 44 45 46 47 48 49 50
000
ASUS45 KBOU 011807
RWRCO

WEATHER ROUNDUP FOR COLORADO
NATIONAL WEATHER SERVICE DENVER/BOULDER CO
1200 PM MDT TUE SEP 01 2015

NOTE: "FAIR" INDICATES FEW OR NO CLOUDS BELOW 12000 FEET WITH NO
SIGNIFICANT WEATHER AND/OR OBSTRUCTIONS TO VISIBILITY.

COZ001>005-013-030-031-011900-
...NORTHWEST COLORADO...

CITY           SKY/WX    TMP DP  RH WIND       PRES   REMARKS
CRAIG          SUNNY     79  48  33 NW5       30.19F
HAYDEN         NOT AVBL
MEEKER         SUNNY     76  50  40 VRB3      30.21F
MOUNT WERNER   NOT AVBL
STEAMBOAT SPGS SUNNY     72  46  39 S5        30.24F
WALDEN         MOSUNNY   70  37  30 SW15      30.31F
$$

COZ006>008-011-011900-
...WEST CENTRAL VALLEYS...

CITY           SKY/WX    TMP DP  RH WIND       PRES   REMARKS
GRAND JUNCTION SUNNY     78  51  38 SE6       30.13F
MONTROSE       SUNNY     81  46  29 SE5       30.20F
EAGLE          MOSUNNY   70  46  43 NE3       30.26F
RIFLE          MOSUNNY   73  51  46 W6        30.18F
DELTA          SUNNY     83  45  26 SE5       30.16F
NUCLA          SUNNY     79  43  27 S6        30.25F
$$

COZ017>023-064>068-011900-
...SOUTHWEST COLORADO...

CITY           SKY/WX    TMP DP  RH WIND       PRES   REMARKS
DURANGO        MOSUNNY   75  42  30 VRB3      30.28F
CORTEZ         SUNNY     77  45  32 SW5       30.22F
PAGOSA SPRINGS PTSUNNY   71  39  31 SW6       30.35F
TELLURIDE      SUNNY     69  40  34 NW3       30.44F
WOLF CREEK PAS PTSUNNY   52  37  58 S10G20    30.65F
$$

COZ009-010-012-014-032>034-037-058>063-011900-
...CENTRAL COLORADO...

CITY           SKY/WX    TMP DP  RH WIND       PRES   REMARKS
ASPEN          MOSUNNY   72  43  35 N8        30.31F
BUENA VISTA    SUNNY     73  37  26 CALM      30.32F
COPPER MTN     CLOUDY    54  36  50 W17G25    30.62F
BERTHOUD PASS  FAIR      46  34  61 NW21G36   30.65F
COTTONWOOD PAS SUNNY     70  37  30 E5        30.46F
GUNNISON       SUNNY     70  43  37 SE3       30.36F
KREMMLING      SUNNY     70  43  37 NW3       30.31F
LEADVILLE      LGT RAIN  60  34  37 NW9       30.45F
SALIDA         SUNNY     77  41  28 CALM      30.35F
SUNLIGHT       TSTM      54  46  76 CALM      30.57S
WILKERSON PASS MOSUNNY   61  36  39 CALM      30.59F
$$

COZ069>075-011900-
...SAN LUIS VALLEY/SANGRE DE CRISTO MOUNTAINS...

CITY           SKY/WX    TMP DP  RH WIND       PRES   REMARKS
ALAMOSA        MOSUNNY   64  50  60 VRB5      30.33F
LA VETA PASS   PTSUNNY   64  45  48 S3G18     30.50S
SAGUACHE       SUNNY     72  43  35 NW8       30.33F
$$

COZ035-036-038>040-011900-
...NORTHERN COLORADO FRONT RANGE...

CITY           SKY/WX    TMP DP  RH WIND       PRES   REMARKS
DENVER INTL AP MOSUNNY   85  38  18 CALM      30.11F
DMNS CITY PARK   N/A     86  41  20 CALM      30.10F
AURORA         MOSUNNY   83  41  22 W5        30.14F
FRONT RANGE AP MOSUNNY   82  32  16 MISG      30.13F
ERIE MUNI ARPT SUNNY     85  39  19 NW6       30.08F
BOULDER MUN AP SUNNY     81  45  28 SE6       30.08F
CENTENNIAL     MOSUNNY   82  41  23 CALM      30.15F
BROOMFIELD     MOSUNNY   86  43  22 CALM      30.13F
FORT COLLINS   SUNNY     84  48  28 S6        30.08F
LONGMONT       SUNNY     89  45  21 SE3       30.08F
$$

COZ041-046-047-076>085-087-088-011900-
...PIKES PEAK/PALMER DIVIDE AND SOUTHERN FOOTHILLS...

CITY           SKY/WX    TMP DP  RH WIND       PRES   REMARKS
COLO. SPRINGS  MOSUNNY   82  48  30 VRB3G16   30.18F
A. F. ACADEMY  MOSUNNY   80  39  23 VRB6      30.19F
ELLICOTT       MOSUNNY  N/A N/A N/A VRB6      30.17F
FALCON         MOSUNNY   78  38  24 MISG      30.24F
FORT CARSON    MOSUNNY   79  45  30 VRB1      30.15F
LIMON          MOSUNNY   79  52  38 SW3       30.12F
MONUMENT HILL  SUNNY     77  36  22 CALM      30.24F
TRINIDAD       MOSUNNY   83  46  27 CALM      30.15F
$$

COZ042>045-048>051-090-091-011900-
...NORTHEAST COLORADO...

CITY           SKY/WX    TMP DP  RH WIND       PRES   REMARKS
GREELEY ARPT   SUNNY     84  48  28 S5        30.07F
AKRON          SUNNY     84  48  28 W9        30.06F
BURLINGTON     SUNNY     85  56  37 VRB3      30.05F
WRAY           CLOUDY    87  52  30 SW6       30.01F
STERLING       NOT AVBL
HOLYOKE        NOT AVBL
FORT MORGAN    SUNNY     84  47  27 SW6       30.06F
$$

COZ086-089-092>099-011900-
...SOUTHEAST COLORADO...

CITY           SKY/WX    TMP DP  RH WIND       PRES   REMARKS
PUEBLO         MOSUNNY   91  44  19 N10       30.06F
LA JUNTA       SUNNY     85  54  34 VRB5      30.05F
LAMAR          SUNNY     85  59  41 VRB3      30.01F
SPRINGFIELD      N/A     88  54  31 VRB6      30.05F
$$



USA.gov is the U.S. government's official web portal to all federal, state and local government web resources and services.